Regional Weather Roundup
Issued by NWS

Home | Current Version | Previous Version | Graphics & Text | Print | Product List | Glossary On
Versions: 1 2 3 4 5 6 7 8 9 10 11 12 13 14 15 16 17 18 19 20 21 22 23 24 25 26 27 28 29 30 31 32 33 34 35 36 37 38 39 40 41 42 43 44 45 46 47 48 49 50
000
ASUS43 KLOT 140608
RWRIL

ILLINOIS REGIONAL WEATHER ROUNDUP
NATIONAL WEATHER SERVICE CHICAGO/ROMEOVILLE IL
1200 AM CST THU DEC 14 2017

NOTE: "FAIR" INDICATES FEW OR NO CLOUDS BELOW 12,000 FEET WITH NO
SIGNIFICANT WEATHER AND/OR OBSTRUCTIONS TO VISIBILITY.

* THESE STATIONS ARE NOT UNDER NWS QUALITY CONTROL. THEY ALSO MAY NOT
  REPORT WEATHER SUCH AS PRECIPITATION OR FOG.

ILZ001-002-007-009-015-016-024-140700-
NORTHWEST ILLINOIS

CITY           SKY/WX    TMP DP  RH WIND       PRES   REMARKS
MOLINE         CLOUDY    28  17  63 NW12      29.89R WCI  18
6HR MIN TEMP:  28; 6HR MAX TEMP:  36;

STERLING*      CLOUDY    25  18  74 N9        29.89R WCI  15
SAVANNA*       CLOUDY    24  16  70 NW7       29.90R WCI  16
$$

ILZ003-004-008-010-011-017-018-140700-
NORTH CENTRAL ILLINOIS

CITY           SKY/WX    TMP DP  RH WIND       PRES   REMARKS
ROCKFORD       CLOUDY    23  15  71 N20G26    29.88R WCI   8
6HR MIN TEMP:  23; 6HR MAX TEMP:  28; 6HR PCP: TRACE;

FREEPORT*      CLOUDY    24  17  74 N12       29.88R WCI  13
ROCHELLE*      CLOUDY    25  18  75 N20       29.85R WCI  11
DE KALB*       MOCLDY    23  18  81 N13G21    29.84R WCI  11
PERU*          PTCLDY    24  17  75 NW12      29.87R WCI  12
$$

ILZ005-006-012>014-019>023-140700-
NORTHEAST ILLINOIS

CITY           SKY/WX    TMP DP  RH WIND       PRES   REMARKS
CHICAGO-OHARE  FLURRIES  28  20  71 N18G28    29.78R WCI  15
6HR MIN TEMP:  28; 6HR MAX TEMP:  31; 6HR PCP: TRACE;

CHICAGO-MIDWAY FLURRIES  29  21  72 N12       29.78R WCI  19
6HR MIN TEMP:  29; 6HR MAX TEMP:  33; 6HR PCP: TRACE;

AURORA         CLOUDY    26  20  77 NW17      29.83R WCI  13
6HR MIN TEMP:  26; 6HR MAX TEMP:  31;

LANSING*       CLOUDY    30  22  72 N10G23    29.77R WCI  21
JOLIET*        CLOUDY    30  20  65 NW10G20   29.82R WCI  21
WAUKEGAN       CLOUDY    24  18  77 N14G23    29.80R WCI  12
6HR MIN TEMP:  24; 6HR MAX TEMP:  28; 6HR PCP: TRACE;

DUPAGE AIRPORT CLOUDY    26  20  77 NW15G24   29.81R WCI  14
6HR MIN TEMP:  26; 6HR MAX TEMP:  29;

KANKAKEE*      CLOUDY    29  19  66 N12       29.79R WCI  20
WHEELING       FLURRIES  27  22  81 N12G21    29.81R WCI  17
6HR MIN TEMP:  27; 6HR MAX TEMP:  30; 6HR PCP: TRACE;

MORRIS*        CLOUDY    28  20  73 NW9G18    29.82R WCI  19
ROMEOVILLE*    CLOUDY    28  20  71 N15G21    29.80R WCI  17
$$

LMZ740>746-140700-
SOUTHERN LAKE MICHIGAN

STATION/POSITION SKY/WX   TEMP    WIND        PRES    VSBY  WAVE
                          AIR SEA DIR/SP/G                  HT/PER
                          (F)     (DEG/KT/KT) (MB)    (MI)  (FT/S)
HARRISON CRIB              31     350/ 29/ 33   N/A
BURNHAM HARBOR             29     350/ 21/ 25   N/A
CALUMET HARBOR                    330/ 21/ 28 1007.8R
BURNS HARBOR               30     360/ 22/ 29 1007.1R
MICHIGAN CITY              29     350/ 28/ 31   N/A
$$

ILZ025>027-034>036-040-047-049-050-058-095>099-140700-
WEST-CENTRAL ILLINOIS

CITY           SKY/WX    TMP DP  RH WIND       PRES   REMARKS
QUINCY         CLOUDY    33  23  66 NW16G25   29.90R WCI  23
GALESBURG*     CLOUDY    27  19  70 NW12      29.89R WCI  17
MACOMB*        CLOUDY    28  20  71 N12       29.92R WCI  18
JACKSONVILLE*  CLOUDY    32  22  67 N15G24    29.88R WCI  22
PITTSFIELD*    CLOUDY    35  26  68 NW16G22   29.89R WCI  25
$$

ILZ028>032-037-038-041>044-048-051>054-059>061-140700-
CENTRAL ILLINOIS

CITY           SKY/WX    TMP DP  RH WIND       PRES   REMARKS
PONTIAC        CLOUDY    28  19  70 NW18      29.84R WCI  15
BLOOMINGTON    CLOUDY    26  18  71 N21G26    29.82R WCI  12
DECATUR        CLOUDY    30  20  66 NW17G30   29.84R WCI  18
PEORIA         CLOUDY    29  17  61 N13G21    29.87R WCI  19
6HR MIN TEMP:  29; 6HR MAX TEMP:  37;

LACON*         CLOUDY    27  17  65 N10G18    29.86R WCI  17
LINCOLN*       CLOUDY    30  21  69 NW9       29.86R WCI  21
SPRINGFIELD    CLOUDY    32  20  61 N17G25    29.87R WCI  21
6HR MIN TEMP:  32; 6HR MAX TEMP:  40;

TAYLORVILLE    CLOUDY    32  20  62 N18G25    29.86R WCI  20
6HR MIN TEMP:  32; 6HR MAX TEMP:  41;

$$

ILZ033-039-045-046-055>057-062-063-140700-
EAST-CENTRAL ILLINOIS

CITY           SKY/WX    TMP DP  RH WIND       PRES   REMARKS
CHAMPAIGN      CLEAR     27  18  69 NW15      29.82R WCI  15
DANVILLE*      CLOUDY    28  19  67 NW17      29.76R WCI  16
RANTOUL*       CLOUDY    30  20  67 N15G23    29.80R WCI  19
MATTOON        CLOUDY    32  22  66 N23G29    29.81R WCI  19
PARIS*         PTCLDY    28  20  71 NW15G23   29.81R WCI  16
$$

ILZ079-100>102-140700-
SOUTHWEST ILLINOIS

CITY           SKY/WX    TMP DP  RH WIND       PRES   REMARKS
ALTON          CLOUDY    37  25  61 NW10      29.87R WCI  30
CAHOKIA*       CLOUDY    40  23  50 NW21G30   29.88R
SPARTA*        CLOUDY    38  28  65 N13G22    29.87R WCI  31
$$

ILZ064>066-069>071-074>076-080>082-084>086-088>090-092>094-140700-
SOUTH-CENTRAL ILLINOIS

CITY           SKY/WX    TMP DP  RH WIND       PRES   REMARKS
CARBONDALE     MOCLDY    39  29  67 MISG      29.85R
6HR MIN TEMP:  39; 6HR MAX TEMP:  51;

CAIRO*         CLEAR     38  29  71 N7        29.84R WCI  32
EFFINGHAM*     CLOUDY    35  26  70 NW18G25   29.84R WCI  24
MARION         MOCLDY    41  29  62 N8G16     29.85R
MT. VERNON     CLOUDY    39  25  57 VRB7G17   29.85R WCI  34
CENTRALIA*     CLOUDY    39  28  65 N17G23    29.85R WCI  29
SALEM*         CLOUDY    37  26  63 NW18G26   29.85R WCI  27
METROPOLIS*    CLEAR     39  31  71 N7        29.85R WCI  34
$$

ILZ067-068-072-073-078-083-087-091-140700-
SOUTHEAST ILLINOIS

CITY           SKY/WX    TMP DP  RH WIND       PRES   REMARKS
LAWRENCEVILLE  CLOUDY    37  26  64 NW23G30   29.80S WCI  26
FLORA*         CLOUDY    38  28  66 NW17      29.84R WCI  28
FAIRFIELD*     CLOUDY    38  27  63 NW6       29.84R WCI  34
HARRISBURG*    PTCLDY    40  30  67 NW16G26   29.84R
ROBINSON*      CLOUDY    35  27  74 NW15G24   29.81R WCI  25
CARMI*         CLOUDY    39  28  65 NW22G30   29.82R WCI  28
$$

ABBREVIATIONS USED IN REMARKS
   TC - TEMPERATURE IN CELSIUS
  WCI - WIND CHILL INDEX
   HX - HEAT INDEX
  VSB - VISIBILITY
$$





USA.gov is the U.S. government's official web portal to all federal, state and local government web resources and services.